Location: Bron Breck
(40.6655°N, 111.8083°W)
Time: 04:46:27
(UTC+00:00)

ISS - Pass Details

Date: 13 March 2021
Orbit: 418 x 422 km, 51.6° (Epoch: 16 April)

Event Time Altitude Azimuth Distance (km) Brightness Sun altitude
Exits shadow 11:49:03 32° 144° (SE) 734 -2.4 -22.0°
Drops below altitude 10° 11:51:05 10° 135° (SE) 1,512 -0.6 -21.6°
Sets 11:53:07 0° 133° (SE) 2,350 0.5 -21.2°
